Preview of NWS' New Version of Forecast
This preview is not operational and should not be used for support decisions.

Regional Weather Roundup (RWR)

Issued by National Weather Service (NWS)

                            
000
ASUS43 KLSX 241807
RWRMO 

WEATHER SUMMARY FOR MISSOURI
NATIONAL WEATHER SERVICE SPRINGFIELD MO
100 PM CDT SUN MAR 24 2019

NOTE: "FAIR" INDICATES FEW OR NO CLOUDS BELOW 12,000 FEET WITH NO
       SIGNIFICANT WEATHER AND/OR OBSTRUCTIONS TO VISIBILITY.
       CURRENT SKY AND/OR WEATHER CONDITIONS ARE NOT AVAILABLE FOR
       CHILLICOTHE AND FARMINGTON.

MOZ001>031-035>038-043-044-053-054-241900-
...NORTHERN AND WESTERN MISSOURI...
  
CITY           SKY/WX    TMP DP  RH WIND       PRES   REMARKS
KANSAS CTY INT CLOUDY    53  43  68 W9        29.96S                  
6HR MIN TEMP:  47; 6HR MAX TEMP:  54;                                

KANSAS C DTWN  PTSUNNY   57  43  59 W14       29.96R                  
6HR MIN TEMP:  51; 6HR MAX TEMP:  58; 6HR PCP: TRACE;                

LEE'S SUMMIT   PTSUNNY   60  44  55 W10G20    29.94F                  
6HR MIN TEMP:  49; 6HR MAX TEMP:  61;                                

ST JOSEPH        N/A    N/A N/A N/A MISG      29.96S                  
CHILLICOTHE      N/A     55  50  83 CALM      29.96F                  
6HR MIN TEMP:  48; 6HR MAX TEMP:  55; 6HR PCP:  0.01;                

KIRKSVILLE     TSTM      49  47  93 N5        29.98R VSB 1            
6HR MIN TEMP:  46; 6HR MAX TEMP:  54; 6HR PCP:  0.20;                

     
$$
MOZ066>068-077>081-088>096-101>105-241900-
...SOUTHWEST MISSOURI...
  
CITY           SKY/WX    TMP DP  RH WIND       PRES   REMARKS
SPRINGFIELD    CLOUDY    63  55  75 S10       29.97F                  
6HR MIN TEMP:  49; 6HR MAX TEMP:  63;                                

JOPLIN         CLOUDY    64  57  78 SW15G25   29.98F                  
6HR MIN TEMP:  51; 6HR MAX TEMP:  64;                                

BRANSON        PTSUNNY   68  55  64 SW8G17    30.00F                  
               
$$
MOZ032>034-039>042-045>050-055>058-069>072-241900-
...CENTRAL MISSOURI...  
  
CITY           SKY/WX    TMP DP  RH WIND       PRES   REMARKS
COLUMBIA       PTSUNNY   61  50  67 S8        29.96F                  
6HR MIN TEMP:  49; 6HR MAX TEMP:  62; 6HR PCP: TRACE;                

JEFFERSON CITY CLOUDY    62  49  62 SW6       29.97F                  
6HR MIN TEMP:  51; 6HR MAX TEMP:  63;                                

ROLLA          PTSUNNY   62  51  67 SW7G17    29.99F                  
6HR MIN TEMP:  47; 6HR MAX TEMP:  63;                                

SEDALIA        CLOUDY    61  53  75 S14G22    29.95F                  
6HR MIN TEMP:  50; 6HR MAX TEMP:  61;                                

WARRENSBURG    CLOUDY    57  50  77 SW9       29.95F                  
OSAGE BEACH    CLOUDY    63  53  70 SW6       29.97F                  
               
$$
MOZ051-052-059>065-241900-
...EAST CENTRAL MISSOURI...
  
CITY           SKY/WX    TMP DP  RH WIND       PRES   REMARKS
ST LOUIS INTL  PTSUNNY   62  48  60 SW5       30.00F                  
6HR MIN TEMP:  47; 6HR MAX TEMP:  63; 6HR PCP:  0.04;                

SPIRIT OF STL  PTSUNNY   65  51  60 W7        29.98F                  
6HR MIN TEMP:  47; 6HR MAX TEMP:  65; 6HR PCP:  0.02;                

ST CHARLES     PTSUNNY   60  50  69 S5        30.00F                  
6HR MIN TEMP:  45; 6HR MAX TEMP:  60; 6HR PCP:  0.04;                

                   
$$
MOZ072>076-082>087-097>100-106>115-241900-
...SOUTH CENTRAL AND SOUTHEAST MISSOURI...
  
CITY           SKY/WX    TMP DP  RH WIND       PRES   REMARKS
CAPE GIRARDEAU PTSUNNY   65  53  65 SW14G29   30.05F                  
6HR MIN TEMP:  48; 6HR MAX TEMP:  65; 6HR PCP:  0.02;                

FARMINGTON     MOSUNNY   64  53  67 S14       30.01F                  
6HR MIN TEMP:  44; 6HR MAX TEMP:  64; 6HR PCP: TRACE;                

POPLAR BLUFF   CLOUDY    65  54  67 SW16G28   30.05F                  
6HR MIN TEMP:  48; 6HR MAX TEMP:  65; 6HR PCP:  0.02;                

WEST PLAINS    CLOUDY    63  54  72 S8        30.03F                  
6HR MIN TEMP:  45; 6HR MAX TEMP:  63;                                

                                       
$$